User: anonymous   Login
Location: Earls Croome
(52.0667°N, 2.2000°W)
Time: 14:50:33
(UTC+00:00)
Language:

Cosmos 1408 Rocket - Orbit

View from above orbital plane
View from above orbital plane
View from above satellite
View from above satellite

Ground track
Ground track

The orbit data is extracted from the following two-line orbital elements,

1 13553U 82092B   20024.57778233 +.00000063 +00000-0 +45081-5 0  9990
2 13553 082.5673 067.6164 0022450 137.6876 334.0977 14.84220765997064
Epoch (UTC): 24 January 2020 13:52:00
Eccentricity: 0.0022450
inclination: 82.5673°
perigee height: 600 km
apogee height: 632 km
right ascension of ascending node: 67.6164°
argument of perigee: 137.6876°
revolutions per day: 14.84220765
mean anomaly at epoch: 334.0977°
orbit number at epoch: 99706

The dashed part of the orbit path shows where the satellite is in the earth's shadow,  

DLR